Tracking 18840 objects as of 17-November-2017
HD Live streaming from Space Station
objects crossing your sky now

AVUM DEB (ADAPTOR)

Track AVUM DEB (ADAPTOR) now!
10-day predictions


NORAD ID: 39162
Int'l Code: 2013-021D
Perigee: 671.2 km
Apogee: 808.9 km
Inclination: 98.8 °
Period: 99.5 minutes
Semi major axis: 7111 km
RCS: 3.997 m2 (large)
Launch date: May 7, 2013
Source: European Space Agency (ESA)
Launch site: FRENCH GUIANA (FRGUI)

Note: This is SATELLITE DEBRIS
aabbcc
Your satellite tracking list
Your tracking list is empty




NASA's NSSDC Master Catalog

Two Line Element Set (TLE):
1 39162U 13021D   17321.50782827  .00000316  00000-0  93840-4 0  9999
2 39162  98.8255 115.4239 0096771 121.1509 239.9216 14.47776245239322
Source of the keplerian elements: AFSPC